Location: Corralito
(10.2667°N, 66.9500°W)
Time: 18:27:55
(UTC+00:00)

FALCON 9 R/B - Pass Details

Date: 23 March 2023
Orbit: 198 x 14502 km, 27.0° (Epoch: 07 June)

Event Time Altitude Azimuth Distance (km) Brightness Sun altitude
Rises 22:52:25 0° 324° (NW) 2,444 4.9 -4.2°
Reaches altitude 10° 22:54:33 10° 350° (N) 2,100 4.2 -4.8°
Maximum altitude 22:57:50 17° 32° (NNE) 2,515 4.1 -5.6°
Drops below altitude 10° 23:04:36 10° 68° (ENE) 4,894 5.3 -7.2°
Enters shadow 23:08:35 - 75° (ENE) 6,374 5.8 -8.2°
